When you browse on this site, cookies collect data to enhance your experience and personalize the content and advertising you see.
Visit our Privacy Policy to learn more. By continuing to use the site, you agree to this use of cookies and data.
  • Em Portugal
  • Lista de países
  • Para 7 dias
  • Temperatura da água
  • Mapa do tempo
  • Widgets de tempo
  • user-avatar
    Iniciar Sessão

    Previsão horária em Soltanovo

    Hoje, 19 Setembro, Quinta-feira

    Tempo Temperatura Precipitação Vento Pressão Humidade
    00:00 +6°C° 0 mm 5 m/s 746 mmHg 89%
    01:00 +5°C° 0 mm 4 m/s 746 mmHg 92%
    02:00 +5°C° 0 mm 4 m/s 747 mmHg 94%
    03:00 +6°C° 0 mm 4 m/s 747 mmHg 92%
    04:00 +6°C° 0 mm 4 m/s 747 mmHg 91%
    05:00 +6°C° 0 mm 5 m/s 748 mmHg 89%
    06:00 +7°C° 0 mm 5 m/s 748 mmHg 87%
    07:00 +7°C° 0 mm 5 m/s 748 mmHg 85%
    08:00 +7°C° 0 mm 5 m/s 749 mmHg 83%
    09:00 +8°C° 0 mm 5 m/s 749 mmHg 81%
    10:00 +8°C° 0 mm 4 m/s 749 mmHg 78%
    11:00 +10°C° 0 mm 4 m/s 750 mmHg 76%
    12:00 +10°C° 0.3 mm 4 m/s 750 mmHg 76%
    13:00 +10°C° 0.3 mm 5 m/s 750 mmHg 76%
    14:00 +10°C° 0.3 mm 5 m/s 750 mmHg 75%
    15:00 +11°C° 0.1 mm 4 m/s 750 mmHg 76%
    16:00 +11°C° 0.1 mm 4 m/s 750 mmHg 76%
    17:00 +10°C° 0.1 mm 3 m/s 750 mmHg 77%
    18:00 +9°C° 0 mm 3 m/s 750 mmHg 82%
    19:00 +8°C° 0 mm 3 m/s 751 mmHg 87%
    20:00 +7°C° 0 mm 3 m/s 751 mmHg 92%
    21:00 +6°C° 0 mm 2 m/s 751 mmHg 92%
    22:00 +6°C° 0 mm 2 m/s 751 mmHg 93%
    23:00 +5°C° 0 mm 2 m/s 751 mmHg 93%

    Amanhã, 20 Setembro, Sexta-feira

    Tempo Temperatura Precipitação Vento Pressão Humidade
    00:00 +5°C° 0 mm 2 m/s 751 mmHg 93%
    01:00 +5°C° 0 mm 2 m/s 751 mmHg 93%
    02:00 +4°C° 0 mm 2 m/s 751 mmHg 93%
    03:00 +4°C° 0 mm 2 m/s 750 mmHg 94%
    04:00 +4°C° 0 mm 2 m/s 750 mmHg 94%
    05:00 +4°C° 0 mm 2 m/s 750 mmHg 95%
    06:00 +4°C° 0 mm 3 m/s 750 mmHg 93%
    07:00 +5°C° 0 mm 4 m/s 750 mmHg 91%
    08:00 +6°C° 0 mm 4 m/s 750 mmHg 90%
    09:00 +6°C° 0 mm 4 m/s 750 mmHg 87%
    10:00 +7°C° 0 mm 4 m/s 750 mmHg 84%
    11:00 +7°C° 0 mm 4 m/s 751 mmHg 81%
    12:00 +7°C° 0.3 mm 4 m/s 751 mmHg 80%
    13:00 +8°C° 0.3 mm 4 m/s 751 mmHg 78%
    14:00 +8°C° 0.3 mm 5 m/s 751 mmHg 77%
    15:00 +8°C° 0.3 mm 4 m/s 751 mmHg 77%
    16:00 +8°C° 0.3 mm 4 m/s 751 mmHg 77%
    17:00 +8°C° 0.3 mm 4 m/s 751 mmHg 77%
    18:00 +6°C° 0 mm 4 m/s 752 mmHg 81%
    19:00 +5°C° 0 mm 4 m/s 752 mmHg 85%
    20:00 +3°C° 0 mm 4 m/s 753 mmHg 89%
    21:00 +3°C° 0 mm 3 m/s 753 mmHg 89%
    22:00 +2°C° 0 mm 3 m/s 753 mmHg 89%
    23:00 +2°C° 0 mm 3 m/s 753 mmHg 89%

    Depois de amanhã, 21 Setembro, Sábado

    Tempo Temperatura Precipitação Vento Pressão Humidade
    00:00 +1°C° 0 mm 3 m/s 753 mmHg 90%
    01:00 +1°C° 0 mm 3 m/s 754 mmHg 90%
    02:00 +1°C° 0 mm 3 m/s 754 mmHg 90%
    03:00 +1°C° 0 mm 3 m/s 754 mmHg 90%
    04:00 +2°C° 0 mm 2 m/s 754 mmHg 90%
    05:00 +1°C° 0 mm 2 m/s 754 mmHg 90%
    06:00 +3°C° 0 mm 2 m/s 754 mmHg 86%
    07:00 +3°C° 0 mm 3 m/s 754 mmHg 82%
    08:00 +4°C° 0 mm 3 m/s 753 mmHg 78%
    09:00 +7°C° 0 mm 3 m/s 753 mmHg 73%
    10:00 +8°C° 0 mm 4 m/s 753 mmHg 67%
    11:00 +10°C° 0 mm 4 m/s 752 mmHg 61%
    12:00 +8°C° 0.4 mm 5 m/s 752 mmHg 72%
    13:00 +7°C° 0.4 mm 5 m/s 751 mmHg 82%
    14:00 +6°C° 0.4 mm 5 m/s 751 mmHg 92%
    15:00 +7°C° 0.5 mm 5 m/s 751 mmHg 93%
    16:00 +7°C° 0.5 mm 5 m/s 750 mmHg 94%
    17:00 +8°C° 0.5 mm 5 m/s 750 mmHg 96%
    18:00 +9°C° 0.2 mm 5 m/s 750 mmHg 95%
    19:00 +9°C° 0.2 mm 5 m/s 750 mmHg 94%
    20:00 +10°C° 0.2 mm 5 m/s 750 mmHg 94%
    21:00 +10°C° 0 mm 6 m/s 750 mmHg 93%
    22:00 +10°C° 0 mm 6 m/s 749 mmHg 93%
    23:00 +10°C° 0 mm 6 m/s 749 mmHg 93%

    22 Setembro, Domingo

    Tempo Temperatura Precipitação Vento Pressão Humidade
    00:00 +10°C° 0 mm 6 m/s 749 mmHg 93%
    01:00 +10°C° 0 mm 6 m/s 749 mmHg 93%
    02:00 +10°C° 0 mm 6 m/s 748 mmHg 92%
    03:00 +10°C° 0 mm 6 m/s 748 mmHg 92%
    04:00 +9°C° 0 mm 7 m/s 748 mmHg 92%
    05:00 +9°C° 0 mm 7 m/s 748 mmHg 91%
    06:00 +9°C° 0 mm 7 m/s 748 mmHg 90%
    07:00 +9°C° 0 mm 7 m/s 748 mmHg 89%
    08:00 +10°C° 0 mm 7 m/s 747 mmHg 88%
    09:00 +10°C° 0 mm 7 m/s 748 mmHg 84%
    10:00 +11°C° 0 mm 7 m/s 749 mmHg 81%
    11:00 +11°C° 0 mm 7 m/s 749 mmHg 77%
    12:00 +11°C° 0 mm 7 m/s 750 mmHg 65%
    13:00 +13°C° 0 mm 6 m/s 750 mmHg 54%
    14:00 +13°C° 0 mm 6 m/s 750 mmHg 43%
    15:00 +12°C° 0 mm 5 m/s 751 mmHg 46%
    16:00 +11°C° 0 mm 4 m/s 751 mmHg 49%
    17:00 +11°C° 0 mm 3 m/s 751 mmHg 52%
    18:00 +9°C° 0 mm 2 m/s 752 mmHg 57%
    19:00 +7°C° 0 mm 2 m/s 752 mmHg 62%
    20:00 +6°C° 0 mm 2 m/s 753 mmHg 68%
    21:00 +6°C° 0 mm 1 m/s 753 mmHg 69%
    22:00 +6°C° 0 mm 1 m/s 753 mmHg 70%
    23:00 +5°C° 0 mm 1 m/s 754 mmHg 71%

    23 Setembro, Segunda-feira

    Tempo Temperatura Precipitação Vento Pressão Humidade
    00:00 +5°C° 0 mm 1 m/s 754 mmHg 72%
    01:00 +3°C° 0 mm 0 m/s 754 mmHg 72%
    02:00 +3°C° 0 mm 0 m/s 754 mmHg 73%
    03:00 +4°C° 0 mm 1 m/s 754 mmHg 73%
    04:00 +4°C° 0 mm 1 m/s 754 mmHg 73%
    05:00 +4°C° 0 mm 1 m/s 754 mmHg 73%
    06:00 +4°C° 0 mm 2 m/s 754 mmHg 70%
    07:00 +5°C° 0 mm 2 m/s 754 mmHg 66%
    08:00 +6°C° 0 mm 2 m/s 754 mmHg 62%
    09:00 +8°C° 0 mm 3 m/s 753 mmHg 57%
    10:00 +10°C° 0 mm 3 m/s 753 mmHg 51%
    11:00 +12°C° 0 mm 4 m/s 753 mmHg 46%
    12:00 +13°C° 0 mm 4 m/s 752 mmHg 45%
    13:00 +13°C° 0 mm 5 m/s 751 mmHg 45%
    14:00 +14°C° 0 mm 5 m/s 750 mmHg 45%
    15:00 +14°C° 0 mm 4 m/s 749 mmHg 49%
    16:00 +13°C° 0 mm 4 m/s 748 mmHg 53%
    17:00 +13°C° 0 mm 3 m/s 748 mmHg 57%
    18:00 +13°C° 0 mm 4 m/s 747 mmHg 57%
    19:00 +12°C° 0 mm 4 m/s 747 mmHg 58%
    20:00 +12°C° 0 mm 4 m/s 746 mmHg 59%
    21:00 +12°C° 0 mm 4 m/s 746 mmHg 61%
    22:00 +13°C° 0 mm 4 m/s 745 mmHg 64%
    23:00 +13°C° 0 mm 4 m/s 745 mmHg 66%

    24 Setembro, Terça-feira

    Tempo Temperatura Precipitação Vento Pressão Humidade
    00:00 +13°C° 0 mm 4 m/s 744 mmHg 68%
    01:00 +13°C° 0 mm 3 m/s 744 mmHg 69%
    02:00 +12°C° 0 mm 3 m/s 743 mmHg 70%
    03:00 +12°C° 0 mm 3 m/s 743 mmHg 72%
    04:00 +12°C° 0 mm 3 m/s 743 mmHg 75%
    05:00 +13°C° 0 mm 2 m/s 742 mmHg 77%
    06:00 +12°C° 0 mm 3 m/s 742 mmHg 77%
    07:00 +13°C° 0 mm 3 m/s 742 mmHg 78%
    08:00 +13°C° 0 mm 3 m/s 742 mmHg 79%
    09:00 +13°C° 0 mm 3 m/s 742 mmHg 80%
    10:00 +13°C° 0 mm 3 m/s 742 mmHg 81%
    11:00 +14°C° 0 mm 2 m/s 742 mmHg 82%
    12:00 +14°C° 0 mm 2 m/s 742 mmHg 81%
    13:00 +14°C° 0 mm 2 m/s 742 mmHg 80%
    14:00 +15°C° 0 mm 2 m/s 742 mmHg 79%
    15:00 +14°C° 0 mm 2 m/s 742 mmHg 80%
    16:00 +14°C° 0 mm 2 m/s 742 mmHg 82%
    17:00 +13°C° 0 mm 2 m/s 742 mmHg 84%
    18:00 +13°C° 0.1 mm 2 m/s 742 mmHg 87%
    19:00 +13°C° 0.1 mm 2 m/s 742 mmHg 90%
    20:00 +12°C° 0.1 mm 2 m/s 742 mmHg 92%
    21:00 +12°C° 0.1 mm 2 m/s 742 mmHg 94%
    22:00 +12°C° 0.1 mm 2 m/s 742 mmHg 95%
    23:00 +12°C° 0.1 mm 1 m/s 742 mmHg 97%
    Mostrar mais